map of ETNH home
ETNH - Airport
Location
City:  Hohn, Schleswig-Holstein, Germany
ICAO:ETNH

Details
Type:Airport (Flugplatz, Airfield)
Use:Military
Latitude:5418'44"N (54.312200)
Longitude:932'17"E (9.538150)
Elevation:39 ft (12 m)
Variation:3.03E (WMM2015v2 magnetic declination)
0.18 annual change
Runways:1
Longest:8005 × 98 ft (2440 × 30 m), paved

Time
Time Zone:UTC+1 (DST+2)
Local Time:

Weather
METAR:ETNH 041320Z 19013KT 9999 SCT040 OVC110 03/M02 Q1020 BLU BLU

Related Locations
Nearby:
Farthest:CHT: 11656 mi / 18759 km
Waitangi [Tuuta], CIT, NZ

Find:

   beyond  
but within

Other Information
Maps:
NOTAMs:
Links:
Sources:

  
  • flag of Germany
  • flag of Schleswig-Holstein
  

Sectional Chart

Flight Planning
at skyvector.com

Satellite Image

Google Maps Satellite view

 

Copyright © 2004-2019 Karl L. Swartz. All rights reserved.
The Great Circle Mapper name and logo are trademarks of the Great Circle Mapper.
All other trademarks mentioned herein belong to their respective owners.
Please see credits for attibutions and further copyright information.

  Follow gcmap on Facebook Follow gcmap on Twitter GCmap on LinkedIn

hCard Microformat

Geo Microformat